sat.trackr.live / text

‹ back to catalog

GSAT-7A

NORAD 43864 · 2018-105A

PAYLOAD ACTIVE UNKNOWN

§ Identity

Operator
Country
IND
Launch date
2018-12-19
Launch site
SRILR
Launch vehicle
Mass (kg)
RCS (m²)

Purposes: comms

External: N2YO · Heavens-Above · Gunter

§ Orbital elements

Epoch: 2026-05-25T04:02:30.547104Z

Period
1,436.08 min
Inclination
0.0471°
Eccentricity
0.0002776
Mean motion
1.00272665 rev/d
Perigee alt
35,774.6 km
Apogee alt
35,798.1 km
Semi-major
42,164.5 km
B*
0.0000e+0
RAAN
260.4435°
Arg perigee
136.8429°
Mean anomaly
328.8538°
Rev number
2,721

§ Raw data

GSAT-7A1 43864U 18105A   26145.16840911  .00000024  00000+0  00000+0 0  99922 43864   0.0471 260.4435 0002776 136.8429 328.8538  1.00272665 27216

JSON: /api/v1/satellites/43864 · /tle

For live sub-satellite position, see the globe view (requires WebGL).

§ Visibility from observer

Set your observer location to see the next 7 days of passes ≥ 10°. The values pass through the URL so the page stays shareable.

No JS? Fill the form by hand. The geolocation button needs JavaScript.